Погода в Панфилове

Погода в Панфилове : погода сейчас, прогноз погоды и архив. Всё, что Вы хотите узнать о погоде в Панфилове!

Хотите узнать прогноз погоды в Панфилове? Тогда Вам сюда: Погода в Панфилове

Поиск расширенной информации на нашем сайте:

Другие новости

Новости СМИ2

Главная страница сайта

Новости сайта

03.07.2017

Напоминаем, что на нашем специализированном сайте Метеоцентр.Азия вы можете получить высокодетализированные автоматические прогнозы погоды по пунктам России, СНГ и мира в авиационном формате (включающие направление и скорость ветра, видимость, явления погоды, количество и форму облачности, нижнюю и верхнюю границу облачности).

Рекомендуем: Столы для ноутбука малогабаритные мини столы.

Погода в Панфилове - сегодня

Время (UTC), дата Ветер
(°,м/с) 
Видим.   Явления Облачность Т
(°С)
Тd
(°С)
f(%) Тe
(°С)
Pmin
(гПа)
dP
(гПа)
Po
(мм)
O2
(г/м3)
Тmin Tmax R s Состояние
почвы
06 15.08.17 тихо ()   20000 м    4/3 600 м верхняя 
[Cu med, cong|Ci fib]
+28.5 +11.7 35 +33  1003.9  -1.9  701  253  +14.8         
09 15.08.17 200 (Ю) 20000 м    8/3 600 м кучево-дожд., средняя, верхняя 
[Cb calv|Ac und|Ci fib]
+31.1 +10.9 29 +35  1001.5  -1.6  700  251           
12 15.08.17 260 (З) 20000 м    6/4 600 м кучево-дожд., средняя, верхняя 
[Cb calv|Ac lent|Ci fib]
+26.6 +11 38 +31  1005.1  2.3  701  255           
15 15.08.17 210 (ЮЗ) н/о  слаб. ливневой дождь  10/6 600 м кучево-дожд., средняя 
[Cb cap|Ac As]
+23.2 +9.3 41 +25  1009.5  3.3  704  260    +32       
18 15.08.17 тихо ()   н/о  {ливн. осадки}  6/4 600 м кучево-дожд., средняя, верхняя 
[Cb cap|Ac lent|Ci fib]
+18 +11.4 65 +22  1011.7  0.9  704  264    +32  0.0     
21 15.08.17 030 (СВ) н/о    3/0 средняя 
[Ac lent]
+15.6 +10.5 72 +20  1011  -1.3  703  266           
00 16.08.17 010 (С) 1{15}  20000 м    3/0 средняя 
[Ac lent]
+14 +9 72 +16  1011.8  0.3  704  268    +1.2       
03 16.08.17 тихо ()   20000 м    4/3 600 м кучево-дожд., средняя 
[Cb calv|Ac lent]
+24 +10.7 43 +27  1008.6  -0.5  703  258           
06 16.08.17 110 (В) 20000 м    6/3 600 м кучево-дожд., верхняя 
[Cb calv|Cs]
+28 +10.9 34 +32  1005.9  -1.6  702  255  +13    0.0     
09 16.08.17 тихо ()   20000 м    10/6 600 м кучево-дожд., средняя 
[Cb cap|Ac As]
+28.4 +12.9 38 +35  1004.4  -1.3  701  253           
12 16.08.17 230 (ЮЗ) 20000 м    9/5 600 м кучево-дожд., средняя, верхняя 
[Cb cap|Ac As|Cs]
+27.4 +14.4 45 +37  1004.2  -0.4  701  254           
15 16.08.17 тихо ()   н/о    9/4 600 м кучево-дожд., средняя, верхняя 
[Cb cap|Ac As|Cs]
+22 +15.3 66 +33  1008  2.4  703  259    +29.4       
18 16.08.17 080 (В) н/о    8/3 600 м кучево-дожд., средняя, верхняя 
[Cb cap|Ac trans|Ci fib]
+19.6 +9.3 51 +23  1009.1  0.3  703  263    +29.4       
21 16.08.17 110 (В) н/о    3/0 средняя 
[Ac lent]
+21.4 +9.2 46 +23  1009.1  0.5  703  261           
00 17.08.17 тихо () {05}  20000 м    10/5 600 м кучево-дожд., средняя, верхняя 
[Cb cap|Ac As|Cs]
+17.4 +10.3 63 +20  1010.6  0.4  704  265    +1.4       
03 17.08.17 110 (В) 20000 м    9/4 600 м кучево-дожд., средняя, верхняя 
[Cb cap|Ac As|Cs]
+21.8 +12.8 57 +28  1009.8  0.4  704  260  +16.5        сухая 
06 17.08.17 210 (ЮЗ) 20000 м    10/8 600 м кучево-дожд., средняя 
[Cb cap|Ac As]
+23.6 +14.8 58 +34  1008.3  -0.9  703  258  +16.5         
09 17.08.17 290 (З) 20000 м  в посл. час ливневой дождь  10/8 600 м кучево-дожд., средняя 
[Cb cap|Ac As]
+21.4 +15.4 69 +33  1008.8  -0.1  703  259           
12 17.08.17 020 (С) 20000 м  {ливн. осадки}  9/4 600 м кучево-дожд., средняя, верхняя 
[Cb cap|Ac lent|Ci fib]
+22.8 +9.5 43 +25  1009.6  0.9  704  260           
15 17.08.17 160 (Ю) н/о    9/4 600 м кучево-дожд., средняя, верхняя 
[Cb cap|Ac lent|Cs]
+18 +10.6 62 +22  1013.6  2.6  706  265    +25.4  0.0     
18 17.08.17 тихо ()   н/о    3/0 средняя 
[Ac lent]
+15.4 +10.6 73 +19  1014.5  0.2  706  267    +25.4  0.0     
21 17.08.17 тихо ()   н/о  слаб. ливневой дождь  10/8 600 м кучево-дожд., средняя 
[Cb cap|Ac As]
+14.4 +11.9 85 +20  1015.5  0.7  706  268           
00 18.08.17 тихо () {13}  20000 м  {ливн. осадки}  9/5 600 м кучево-дожд., средняя, верхняя 
[Cb cap|Ac trans|Cs]
+14 +12 88 +19  1016.6  707  269    -1.3       
03 18.08.17 230 (ЮЗ) 20000 м    3/0 средняя 
[Ac lent]
+18.3 +12.1 67 +24  1016.7  1.1  708  265           
06 18.08.17 220 (ЮЗ) 20000 м    3/3 600 м кучево-дожд. 
[Cb calv]
+23.6 +6.3 33 +24  1014.7  -0.7  707  261  +13    0.1     
Время (UTC), дата Ветер
(°,м/с) 
Видим.   Явления Облачность Т
(°С)
Тd
(°С)
f(%) Тe
(°С)
Pmin
(гПа)
dP
(гПа)
Po
(мм)
O2
(г/м3)
Тmin Tmax R s Состояние
почвы

Для получения пояснительной информации подведите курсор к названию столбца.

ПОГОДА в Панфилове - архив

Всё, что Вы хотите узнать о погоде в Панфилове - удобно и подробно!

Выберите нужную дату (начиная с 1 января 2015* года) и нажмите кнопку "Найти".
Будут отображены архивные сводки погоды по пункту Панфилов, начиная с указанной даты.


Отображать данные в формате CSV (для использования в таблицах Excel)


Внимание! Наш архив погоды предназначен исключительно для личного некоммерческого использования в познавательных целях. Если Вам необходимы официальные справки о состоянии погоды (для производственных, юридических, коммерческих и т.п. целей), обращайтесь в органы Росгидромета.

*Примечание: данная дата относится к архиву по метеостанциям СССР (Россия, СНГ, Балтия).
Архив по метеостанциям Зарубежной Европы и Азии (кроме Китая) хранится 10 дней, по другим регионам земного шара (Китай, Африка, Америка, Австралия, Океания) - 1 день.

Панфилов - район местоположения метеостанции


Название, широта, долгота, высота метеостанции:
Панфилов 44.2°ш. 80.1°д. 645 м над ур. моря [Казахстан]

Дополнительная информация

В oтличие oт бoльшинства пoгoдных сайтoв мы публикуем пoдрoбную метеoинфoрмацию в детальнoм прoфессиoнальнoм фoрмате.

Характеристики температуры и влажнoсти вoздуха измеряются на высoте 2 м в тени вдали oт зданий и деревьев.
Скoрoсть ветра измеряется на высoте 10 м (на урoвне рoста челoвека скoрoсть ветра ниже в 1.5-2 раза). Если метеoстанция нахoдится в гoрoде или в лесу, тo скoрoсть ветра занижена на 2-4 м/с пo сравнению с oткрытым местoм. Скoрoсть ветра над акватoриями крупных рек и oзёр, а также на вершинах хoлмoв на 2-5 м/с выше, чем в oбычных услoвиях.
Атмoсфернoе давление в разных тoчках местнoсти мoжет значительнo oтличаться oт давления на метеoстанции, в зависимoсти oт услoвий рельефа (при пoдъёме на 10 м давление пoнижается примернo на 1 мм рт.ст.).